GW4769 Weather Reports


time (UTC)temp
C
wind
direction
speed
KPH
gust
KPH
rain 1hr
cm
rain 24hr
cm
rain mn
cm
humidity
%
barometer
mb
20260509162015 25 242 6.4 19.3 0.00 0.13 0.08 78 1013.4
20260509161527 25 154 6.4 19.3 0.00 0.13 0.08 77 1013.4
20260509161011 25 213 6.4 19.3 0.00 0.13 0.08 77 1013.5
20260509160509 25 192 6.4 12.9 0.00 0.13 0.08 77 1013.5
20260509160032 25 198 4.8 12.9 0.00 0.13 0.08 77 1013.5
20260509155507 25 189 8.0 12.9 0.00 0.13 0.08 76 1013.4
20260509155014 25 225 4.8 14.5 0.00 0.13 0.08 77 1013.4
20260509154532 24 176 8.0 16.1 0.00 0.13 0.08 78 1013.5
20260509154010 23 192 8.0 16.1 0.00 0.13 0.08 78 1013.4
20260509153504 23 169 4.8 14.5 0.00 0.13 0.08 78 1013.3
20260509153014 23 193 8.0 14.5 0.00 0.13 0.08 79 1013.5
20260509152504 23 193 6.4 12.9 0.00 0.13 0.08 80 1013.6
20260509152005 23 184 4.8 11.3 0.00 0.13 0.08 80 1013.8
20260509151521 23 200 3.2 9.7 0.00 0.13 0.08 83 1013.8
20260509151008 23 154 4.8 8.0 0.00 0.13 0.08 83 1013.9
20260509150509 23 198 3.2 8.0 0.00 0.13 0.08 84 1014.0
20260509150022 23 247 1.6 6.4 0.00 0.13 0.08 85 1014.1
20260509145510 23 231 3.2 4.8 0.00 0.13 0.08 85 1014.2
20260509145011 23 231 1.6 9.7 0.00 0.13 0.08 86 1014.1
20260509144532 22 174 3.2 9.7 0.00 0.13 0.08 86 1014.2
20260509144007 22 191 6.4 9.7 0.00 0.13 0.08 87 1014.1
20260509143512 22 196 1.6 8.0 0.00 0.13 0.08 88 1014.1
20260509143030 22 191 4.8 8.0 0.00 0.13 0.08 90 1014.1
20260509142512 22 236 1.6 4.8 0.00 0.13 0.08 92 1014.0
20260509142004 22 91 3.2 4.8 0.00 0.13 0.08 91 1013.9
20260509141518 21 80 3.2 8.0 0.00 0.13 0.08 91 1013.9
20260509141008 21 63 4.8 8.0 0.00 0.13 0.08 92 1013.9
20260509140509 21 50 4.8 4.8 0.00 0.13 0.08 91 1013.9
20260509140004 21 62 3.2 4.8 0.00 0.13 0.08 91 1014.0
20260509135506 21 41 3.2 4.8 0.00 0.13 0.08 91 1014.0
20260509135003 21 39 3.2 4.8 0.00 0.13 0.08 91 1013.8
20260509134506 21 9 3.2 4.8 0.00 0.13 0.08 91 1013.8
20260509134003 21 26 3.2 4.8 0.00 0.13 0.08 91 1013.9
20260509133503 21 37 3.2 4.8 0.00 0.13 0.08 91 1013.8
20260509133010 21 54 3.2 3.2 0.00 0.13 0.08 91 1013.8
20260509132504 21 64 1.6 3.2 0.00 0.13 0.08 92 1013.8
20260509132006 21 33 0.0 3.2 0.00 0.13 0.08 92 1013.8
20260509131513 21 33 1.6 4.8 0.00 0.13 0.08 91 1013.9
20260509131008 21 16 3.2 6.4 0.00 0.13 0.08 91 1014.0
20260509130505 21 13 4.8 6.4 0.00 0.13 0.08 91 1014.1
20260509130022 21 358 4.8 6.4 0.00 0.13 0.08 91 1014.1
20260509125512 21 53 0.0 3.2 0.00 0.13 0.08 91 1014.0
20260509125008 21 26 0.0 4.8 0.00 0.13 0.08 91 1014.0
20260509124521 21 26 3.2 8.0 0.00 0.13 0.08 91 1014.0
20260509124002 21 23 4.8 8.0 0.00 0.13 0.08 91 1014.1
20260509123504 21 3 6.4 8.0 0.00 0.13 0.08 91 1014.2
20260509123016 21 11 3.2 4.8 0.00 0.13 0.08 90 1014.0
20260509122503 21 6 3.2 3.2 0.00 0.13 0.08 90 1013.8
20260509122004 21 64 0.0 1.6 0.00 0.13 0.08 90 1013.8
20260509121513 21 72 0.0 1.6 0.00 0.13 0.08 90 1013.6
20260509121003 22 88 0.0 1.6 0.00 0.13 0.08 91 1013.6
20260509120503 21 91 0.0 3.2 0.00 0.13 0.08 91 1013.5
20260509120016 21 114 0.0 3.2 0.00 0.13 0.08 91 1013.5
20260509115507 21 117 1.6 3.2 0.00 0.13 0.08 92 1013.5
20260509115006 21 110 0.0 3.2 0.00 0.13 0.08 91 1013.6
20260509114520 21 129 0.0 3.2 0.00 0.13 0.08 92 1013.6
20260509114010 21 132 0.0 6.4 0.00 0.13 0.08 92 1013.5
20260509113508 21 147 1.6 8.0 0.00 0.13 0.08 92 1013.3
20260509113024 21 148 1.6 8.0 0.00 0.13 0.08 92 1013.3
20260509112505 20 136 4.8 8.0 0.00 0.13 0.08 92 1013.2
20260509111506 20 134 0.0 0.0 0.00 0.13 0.08 92 1013.2
20260509111005 20 126 0.0 0.0 0.00 0.13 0.08 91 1013.2
20260509110505 20 124 0.0 0.0 0.00 0.13 0.08 91 1013.2
20260509110012 20 114 0.0 0.0 0.00 0.13 0.08 91 1013.0
20260509105505 20 82 0.0 3.2 0.00 0.13 0.08 91 1012.9
20260509105003 20 85 0.0 3.2 0.00 0.13 0.08 91 1012.8
20260509104518 20 90 3.2 3.2 0.00 0.13 0.08 91 1012.7
20260509104007 20 120 0.0 8.0 0.00 0.13 0.08 90 1012.6
20260509103506 20 124 3.2 8.0 0.00 0.13 0.08 90 1012.7
20260509103022 20 122 6.4 8.0 0.00 0.13 0.08 90 1012.5
20260509102508 20 124 4.8 6.4 0.00 0.13 0.08 90 1012.5
20260509102012 20 110 3.2 6.4 0.00 0.13 0.08 90 1012.4
20260509101532 20 103 3.2 4.8 0.00 0.13 0.08 89 1012.5
20260509101014 20 110 3.2 4.8 0.00 0.13 0.08 89 1012.4
20260509100507 20 128 3.2 4.8 0.00 0.13 0.08 88 1012.5
20260509100012 20 115 3.2 4.8 0.00 0.13 0.08 88 1012.5
20260509095505 20 108 3.2 4.8 0.00 0.13 0.08 88 1012.4
20260509095006 20 102 3.2 4.8 0.00 0.13 0.08 88 1012.3
20260509094515 20 91 1.6 4.8 0.00 0.13 0.08 89 1012.4
20260509094007 20 83 3.2 4.8 0.00 0.13 0.08 89 1012.3
20260509093507 20 96 3.2 3.2 0.00 0.13 0.08 90 1012.3
20260509093020 20 98 0.0 3.2 0.00 0.13 0.08 89 1012.4
20260509092504 20 80 0.0 4.8 0.00 0.13 0.08 89 1012.5
20260509092009 20 99 1.6 4.8 0.00 0.13 0.08 89 1012.5
20260509091531 20 107 1.6 6.4 0.00 0.13 0.08 90 1012.5
20260509091010 20 85 4.8 6.4 0.00 0.13 0.08 90 1012.4
20260509090507 20 98 3.2 4.8 0.00 0.13 0.08 90 1012.5
20260509090026 20 102 0.0 4.8 0.00 0.13 0.08 90 1012.7
20260509085512 20 162 0.0 6.4 0.00 0.13 0.08 89 1012.7
20260509085003 20 138 4.8 6.4 0.00 0.13 0.08 90 1012.9
20260509084513 20 105 0.0 4.8 0.00 0.13 0.08 90 1013.0
20260509084007 20 329 0.0 1.6 0.00 0.13 0.08 90 1013.4
20260509083508 20 9 0.0 4.8 0.00 0.13 0.08 89 1013.2
20260509083017 20 10 3.2 4.8 0.00 0.13 0.08 90 1013.2
20260509082504 20 108 1.6 4.8 0.00 0.13 0.08 90 1012.9
20260509082007 19 114 3.2 4.8 0.00 0.13 0.08 91 1012.6
20260509081524 19 153 0.0 4.8 0.00 0.13 0.08 90 1012.8
20260509081009 19 153 3.2 4.8 0.00 0.13 0.08 90 1012.6
20260509080512 19 190 3.2 3.2 0.00 0.13 0.08 90 1012.9
20260509080024 19 220 0.0 1.6 0.00 0.13 0.08 89 1013.1
20260509075508 19 197 0.0 0.0 0.00 0.13 0.08 89 1013.2
20260509075011 19 157 0.0 1.6 0.00 0.13 0.08 88 1013.3
20260509074528 20 157 0.0 1.6 0.00 0.13 0.08 88 1013.3
20260509074013 20 34 0.0 4.8 0.00 0.13 0.08 88 1013.3
20260509073516 20 34 1.6 4.8 0.00 0.13 0.08 88 1013.1
20260509073028 20 66 3.2 6.4 0.00 0.13 0.08 88 1012.9
20260509072503 20 147 4.8 6.4 0.00 0.13 0.08 88 1012.8
20260509072009 20 131 4.8 6.4 0.00 0.13 0.08 87 1012.9
20260509071519 20 111 3.2 9.7 0.00 0.13 0.08 87 1013.1
20260509071008 20 104 4.8 9.7 0.00 0.13 0.08 87 1013.0
20260509070509 20 120 8.0 9.7 0.00 0.13 0.08 87 1012.9
20260509070026 20 113 6.4 8.0 0.00 0.13 0.08 87 1013.0
20260509065508 20 99 6.4 9.7 0.00 0.13 0.08 88 1013.2
20260509065011 18 112 3.2 9.7 0.00 0.13 0.08 88 1013.3
20260509064526 19 316 0.0 3.2 0.00 0.13 0.08 88 1013.5
20260509064010 19 316 0.0 3.2 0.00 0.13 0.08 88 1013.5
20260509063513 19 328 1.6 3.2 0.00 0.13 0.08 87 1013.5
20260509063032 19 323 0.0 1.6 0.00 0.13 0.08 86 1013.7
20260509062512 19 354 0.0 1.6 0.00 0.13 0.08 85 1013.7
20260509062015 19 27 0.0 3.2 0.00 0.13 0.08 84 1013.9
20260509061517 20 27 0.0 4.8 0.00 0.13 0.08 85 1013.8
20260509061003 19 42 3.2 4.8 0.00 0.13 0.08 85 1013.8
20260509060503 19 72 3.2 4.8 0.00 0.13 0.08 88 1013.8
20260509060004 19 86 4.8 6.4 0.00 0.13 0.08 89 1013.8
20260509055506 19 72 1.6 6.4 0.00 0.13 0.08 90 1014.0
20260509055001 19 65 1.6 6.4 0.00 0.13 0.08 91 1013.7
20260509054505 19 97 3.2 6.4 0.00 0.13 0.08 92 1013.5
20260509054002 19 19 0.0 0.0 0.00 0.13 0.08 92 1013.9
20260509053503 18 342 0.0 0.0 0.00 0.13 0.08 92 1014.0
20260509053003 18 234 0.0 0.0 0.00 0.13 0.08 92 1014.5
20260509052502 18 203 0.0 0.0 0.03 0.13 0.08 92 1014.7
20260509052003 18 201 0.0 1.6 0.03 0.13 0.08 91 1014.5
20260509051508 18 201 0.0 3.2 0.03 0.13 0.08 91 1014.6
20260509051003 18 203 0.0 3.2 0.03 0.13 0.08 91 1014.7
20260509050503 18 224 0.0 4.8 0.05 0.13 0.08 91 1015.0
20260509050008 19 210 0.0 6.4 0.08 0.13 0.08 91 1014.8
20260509045502 19 167 3.2 6.4 0.08 0.13 0.08 91 1015.0
20260509045003 18 154 1.6 4.8 0.10 0.13 0.08 91 1015.1
20260509044508 18 242 1.6 4.8 0.10 0.13 0.08 90 1015.4
20260509044002 19 220 0.0 6.4 0.13 0.13 0.08 90 1015.2
20260509043503 19 219 0.0 8.0 0.13 0.13 0.08 90 1015.1
20260509043005 19 156 3.2 8.0 0.13 0.13 0.08 90 1014.8
20260509042504 19 174 6.4 9.7 0.10 0.10 0.05 90 1014.8
20260509042002 19 155 3.2 11.3 0.10 0.10 0.05 90 1015.1
20260509041511 19 170 6.4 12.9 0.10 0.10 0.05 89 1015.4
20260509041005 20 165 6.4 14.5 0.10 0.10 0.05 90 1015.0
20260509040502 20 138 11.3 14.5 0.08 0.08 0.03 90 1014.8
20260509040009 20 148 8.0 14.5 0.05 0.05 0.00 89 1015.1
20260509035504 20 139 9.7 14.5 0.05 0.05 0.05 89 1015.2
20260509035003 20 140 11.3 12.9 0.03 0.03 0.03 89 1015.3
20260509034510 20 156 8.0 9.7 0.03 0.03 0.03 89 1015.6
20260509034004 20 145 4.8 8.0 0.00 0.00 0.00 88 1015.7
20260509033505 20 155 4.8 8.0 0.00 0.00 0.00 88 1015.8
20260509033010 20 128 3.2 9.7 0.00 0.00 0.00 88 1015.9
20260509032504 20 134 3.2 9.7 0.00 0.00 0.00 88 1015.9
20260509032003 20 155 6.4 9.7 0.00 0.00 0.00 87 1015.8
20260509031510 20 166 6.4 9.7 0.00 0.00 0.00 87 1015.9
20260509031002 20 155 6.4 9.7 0.00 0.00 0.00 87 1016.0
20260509030505 20 156 4.8 8.0 0.00 0.00 0.00 87 1016.1
20260509030011 19 167 4.8 6.4 0.00 0.00 0.00 86 1016.2
20260509025502 19 191 3.2 3.2 0.00 0.00 0.00 86 1016.3
20260509025003 19 191 0.0 3.2 0.00 0.00 0.00 86 1016.4
20260509024512 20 198 0.0 3.2 0.00 0.00 0.00 85 1016.4
20260509024004 20 193 0.0 3.2 0.00 0.00 0.00 85 1016.5
20260509023504 20 195 3.2 3.2 0.00 0.00 0.00 84 1016.5
20260509023010 20 186 1.6 4.8 0.00 0.00 0.00 84 1016.3
20260509022504 20 153 1.6 4.8 0.00 0.00 0.00 84 1016.3
20260509022004 20 156 1.6 4.8 0.00 0.00 0.00 83 1016.3
20260509021512 20 155 3.2 4.8 0.00 0.00 0.00 83 1016.4
20260509021005 20 152 3.2 11.3 0.00 0.00 0.00 83 1016.5
20260509020503 20 153 3.2 11.3 0.00 0.00 0.00 83 1016.3
20260509020008 20 124 8.0 11.3 0.00 0.00 0.00 82 1015.9
20260509015504 20 109 8.0 11.3 0.00 0.00 0.00 81 1015.7
20260509015003 20 114 8.0 11.3 0.00 0.00 0.00 80 1015.5
20260509014511 20 95 8.0 11.3 0.00 0.00 0.00 80 1015.5
20260509014003 20 108 8.0 9.7 0.00 0.00 0.00 80 1015.6
20260509013505 20 111 4.8 8.0 0.00 0.00 0.00 81 1015.6
20260509013018 20 107 4.8 9.7 0.00 0.00 0.00 80 1015.5
20260509012504 20 117 6.4 11.3 0.00 0.00 0.00 79 1015.4
20260509012004 20 106 8.0 12.9 0.00 0.00 0.00 79 1015.4
20260509011514 20 92 8.0 12.9 0.00 0.00 0.00 80 1015.3
20260509011004 20 84 8.0 11.3 0.00 0.00 0.00 80 1015.3
20260509010504 20 101 8.0 11.3 0.00 0.00 0.00 80 1015.5
20260509010019 20 111 8.0 11.3 0.00 0.00 0.00 79 1015.5
20260509005506 20 110 6.4 9.7 0.00 0.00 0.00 79 1015.5
20260509005004 20 106 4.8 9.7 0.00 0.00 0.00 79 1015.4
20260509004512 20 89 6.4 9.7 0.00 0.00 0.00 78 1015.4
20260509004005 20 86 6.4 11.3 0.00 0.00 0.00 78 1015.5
20260509003505 20 101 6.4 11.3 0.00 0.00 0.00 78 1015.4
20260509003021 20 101 9.7 11.3 0.00 0.00 0.00 78 1015.3
20260509002506 20 109 8.0 11.3 0.00 0.00 0.00 77 1015.3
20260509002003 20 87 8.0 11.3 0.00 0.00 0.00 79 1015.3
20260509001516 20 113 6.4 11.3 0.00 0.00 0.00 78 1015.4
20260509001004 20 115 8.0 12.9 0.00 0.00 0.00 77 1015.2
20260509000504 20 98 8.0 14.5 0.00 0.00 0.00 76 1015.1
20260509000016 20 101 11.3 14.5 0.00 0.00 0.00 76 1015.0
20260508235504 20 98 11.3 14.5 0.00 0.00 0.00 77 1015.0
20260508235005 20 95 11.3 14.5 0.00 0.00 0.00 77 1015.0
20260508234515 20 114 9.7 14.5 0.00 0.00 0.00 78 1014.9
20260508234004 20 98 11.3 14.5 0.00 0.00 0.00 79 1014.9
20260508233510 20 84 9.7 12.9 0.00 0.00 0.00 79 1014.7
20260508233010 20 91 11.3 14.5 0.00 0.00 0.00 80 1014.8
20260508232504 20 80 11.3 16.1 0.00 0.00 0.00 80 1014.9
20260508232006 20 101 9.7 16.1 0.00 0.00 0.00 80 1014.7
20260508231515 20 100 11.3 12.9 0.00 0.00 0.00 80 1014.8
20260508231004 20 89 9.7 12.9 0.00 0.00 0.00 80 1014.8
20260508230507 20 81 11.3 12.9 0.00 0.00 0.00 81 1014.9
20260508230023 20 69 9.7 14.5 0.00 0.00 0.00 81 1014.9
20260508225508 20 112 9.7 16.1 0.00 0.00 0.00 81 1014.7
20260508225009 20 92 12.9 16.1 0.00 0.00 0.00 81 1014.7
20260508224519 20 89 9.7 16.1 0.00 0.00 0.00 81 1014.7
20260508224003 20 99 12.9 16.1 0.00 0.00 0.00 82 1014.7
20260508223503 20 96 12.9 16.1 0.00 0.00 0.00 82 1014.7
20260508223033 20 126 12.9 16.1 0.00 0.00 0.00 82 1014.6
20260508222505 20 87 12.9 16.1 0.00 0.00 0.00 82 1014.6
20260508222005 20 89 11.3 17.7 0.00 0.00 0.00 80 1014.8
20260508221520 20 133 11.3 17.7 0.00 0.00 0.00 81 1014.6
20260508221008 20 101 12.9 19.3 0.00 0.00 0.00 81 1014.6
20260508220505 20 106 14.5 19.3 0.00 0.00 0.00 81 1014.7
20260508220022 20 120 12.9 20.9 0.00 0.00 0.00 82 1014.6
20260508215506 20 101 14.5 20.9 0.00 0.00 0.00 81 1014.6
20260508215009 20 109 14.5 19.3 0.00 0.00 0.00 81 1014.6
20260508214520 20 126 14.5 22.5 0.00 0.00 0.00 81 1014.7
20260508214006 20 108 17.7 22.5 0.00 0.00 0.00 80 1014.7
20260508213507 20 133 12.9 17.7 0.00 0.00 0.00 80 1014.7
20260508213025 20 107 11.3 17.7 0.00 0.00 0.00 79 1015.0
20260508212507 20 111 12.9 17.7 0.00 0.00 0.00 80 1015.1
20260508212009 20 134 14.5 17.7 0.00 0.00 0.00 78 1015.2
20260508211520 20 105 12.9 17.7 0.00 0.00 0.00 79 1015.4
20260508211008 20 125 11.3 17.7 0.00 0.00 0.00 79 1015.5
20260508210508 20 88 12.9 17.7 0.00 0.00 0.00 78 1015.4
20260508210022 20 129 14.5 19.3 0.00 0.00 0.00 77 1015.4
20260508205505 20 122 12.9 19.3 0.00 0.00 0.00 77 1015.5
20260508205004 20 104 12.9 19.3 0.00 0.00 0.00 78 1015.4
20260508204527 20 107 16.1 19.3 0.00 0.00 0.00 77 1015.4
20260508204013 20 104 14.5 19.3 0.00 0.00 0.00 77 1015.4
20260508203509 20 121 14.5 24.1 0.00 0.00 0.00 76 1015.4
20260508203024 20 118 17.7 24.1 0.00 0.00 0.00 75 1015.2
20260508202504 19 112 17.7 27.4 0.00 0.00 0.00 76 1014.8
20260508202004 19 109 20.9 27.4 0.00 0.00 0.00 74 1014.8
20260508201508 19 102 20.9 25.7 0.00 0.00 0.00 75 1014.9
20260508201001 19 99 17.7 22.5 0.00 0.00 0.00 75 1015.2
20260508200503 19 90 19.3 22.5 0.00 0.00 0.00 74 1015.4
20260508200012 19 98 16.1 22.5 0.00 0.00 0.00 76 1015.5
20260508195505 19 103 17.7 24.1 0.00 0.00 0.00 74 1015.6
20260508195004 19 118 17.7 24.1 0.00 0.00 0.00 76 1015.6
20260508194516 19 97 20.9 24.1 0.00 0.00 0.00 73 1015.7
20260508194006 19 102 19.3 24.1 0.00 0.00 0.00 74 1015.8
20260508193506 19 91 19.3 25.7 0.00 0.00 0.00 74 1015.9
20260508193022 19 102 19.3 25.7 0.00 0.00 0.00 75 1016.0
20260508192511 19 104 17.7 25.7 0.00 0.00 0.00 76 1015.9
20260508192003 19 111 19.3 25.7 0.00 0.00 0.00 75 1015.9
20260508191508 19 102 19.3 25.7 0.00 0.00 0.00 74 1015.9
20260508191004 19 76 19.3 24.1 0.00 0.00 0.00 72 1016.0
20260508190505 19 82 19.3 27.4 0.00 0.00 0.00 71 1016.0
20260508190009 19 94 20.9 27.4 0.00 0.00 0.00 72 1016.1
20260508185503 19 84 19.3 27.4 0.00 0.00 0.00 74 1016.2
20260508185002 19 82 22.5 27.4 0.00 0.00 0.00 74 1016.2
20260508184512 19 77 22.5 27.4 0.00 0.00 0.00 73 1016.1
20260508184005 19 89 24.1 27.4 0.00 0.00 0.00 73 1016.2
20260508183510 19 79 22.5 27.4 0.00 0.00 0.00 74 1016.3
20260508183018 19 76 22.5 29.0 0.00 0.00 0.00 72 1016.4
20260508182507 19 94 20.9 29.0 0.00 0.00 0.00 73 1016.4
20260508182011 19 90 20.9 29.0 0.00 0.00 0.00 73 1016.3
20260508181522 19 91 24.1 30.6 0.00 0.00 0.00 72 1016.4
20260508181010 19 105 24.1 30.6 0.00 0.00 0.00 73 1016.4
20260508180512 19 83 20.9 30.6 0.00 0.00 0.00 74 1016.5
20260508180012 19 103 20.9 27.4 0.00 0.00 0.00 74 1016.6
20260508175505 19 71 22.5 30.6 0.00 0.00 0.00 71 1016.7
20260508175003 18 88 24.1 30.6 0.00 0.00 0.00 71 1016.9
20260508174513 19 75 22.5 30.6 0.00 0.00 0.00 74 1017.0
20260508174004 18 77 22.5 29.0 0.00 0.00 0.00 71 1016.8
20260508173506 18 80 22.5 29.0 0.00 0.00 0.00 71 1016.8
20260508173016 19 81 22.5 29.0 0.00 0.00 0.00 75 1016.9
20260508172507 18 79 24.1 30.6 0.00 0.00 0.00 74 1017.0
20260508172008 18 75 24.1 30.6 0.00 0.00 0.00 72 1017.0
20260508171525 18 82 24.1 32.2 0.00 0.00 0.00 72 1016.9
20260508171008 18 65 24.1 32.2 0.00 0.00 0.00 73 1016.8
20260508170507 18 92 27.4 32.2 0.00 0.00 0.00 72 1016.9
20260508170023 18 73 27.4 32.2 0.00 0.00 0.00 72 1017.0
20260508165508 18 67 25.7 30.6 0.00 0.00 0.00 70 1017.0
20260508165011 18 84 24.1 29.0 0.00 0.00 0.00 73 1017.1
20260508164508 18 73 24.1 29.0 0.00 0.00 0.00 71 1017.1
20260508164006 18 77 24.1 27.4 0.00 0.00 0.00 70 1017.2
20260508163505 18 75 24.1 27.4 0.00 0.00 0.00 71 1017.3
20260508163012 18 76 22.5 27.4 0.00 0.00 0.00 68 1017.4
20260508162507 18 74 20.9 25.7 0.00 0.00 0.00 69 1017.5